Buckhannon, WV

6:31 PM EDT on March 22, 2017 (GMT -0400)
Buckhannon

Weather History for KW22 - March, 2013

Change the Weather History Date:

Tuesday, March 12, 2013

  Actual Average (KCKB) Record (KCKB)
Temperature  
Mean Temperature 43 °F -  
Max Temperature 51 °F 52 °F 78 °F (1973)
Min Temperature 35 °F 28 °F 3 °F (1934)
Degree Days  
Heating Degree Days 22    
Moisture  
Dew Point 35 °F    
Average Humidity 89    
Maximum Humidity 100    
Minimum Humidity 75    
Precipitation  
Precipitation 0.26 in - - ()
Sea Level Pressure  
Sea Level Pressure 29.92 in    
Wind  
Wind Speed 9 mph (WSW)    
Max Wind Speed 16 mph    
Max Gust Speed 25 mph    
Visibility 8 miles    
Events Rain    
Averages and records for this station are not official NWS values.
T = Trace of Precipitation, MM = Missing Value Source: NWS Daily Summary

Daily Weather History Graph

Daily Weather History Graph

Search for Another Location

Airport or City:

Trip Planner

Search our weather history database for the weather conditions in past years. The results will help you decide how hot, cold, wet, or windy it might be!

Date:

Astronomy

Mar. 12, 2013 Rise Set
Actual Time 7:36 AM EDT 7:25 PM EDT
Civil Twilight 7:10 AM EDT 7:51 PM EDT
Nautical Twilight 6:39 AM EDT 8:22 PM EDT
Astronomical Twilight 6:08 AM EDT 8:54 PM EDT
Moon 7:43 AM EDT (3/12) 8:37 PM EDT (3/12)
Length of Visible Light 12h 41m
Length of Day
11h 48m
New Moon, 1% of the Moon is Illuminated
Mar 12
New Moon
Mar 19
First Quarter
Mar 27
Full
Apr 3
Last Quarter
Apr 10
New

Hourly Weather History & Observations

Time (EDT) Temp. Windchill Dew Point Humidity Pressure Visibility Wind Dir Wind Speed Gust Speed Precip Events Conditions
12:15 AM 51.8 °F - 51.8 °F 100% 29.80 in 5.0 mi SW 6.9 mph - 0.01 in Rain Light Rain
12:35 AM 51.8 °F - 51.8 °F 100% 29.79 in 4.0 mi SSW 8.1 mph - 0.02 in Rain Rain
12:55 AM 51.8 °F - 51.8 °F 100% 29.78 in 4.0 mi SW 5.8 mph - 0.03 in Rain Light Rain
1:15 AM 50.0 °F - 50.0 °F 100% 29.78 in 5.0 mi WSW 6.9 mph - N/A Rain Rain
1:55 AM 46.4 °F 39.8 °F 46.4 °F 100% 29.79 in 3.0 mi NW 16.1 mph 23.0 mph 0.18 in Rain Rain
2:15 AM 42.8 °F 35.4 °F 42.8 °F 100% 29.82 in 5.0 mi West 15.0 mph 23.0 mph 0.01 in Rain Light Rain
2:35 AM 41.0 °F 32.8 °F 41.0 °F 100% 29.83 in 8.0 mi West 16.1 mph 25.3 mph 0.01 in   Overcast
2:55 AM 39.2 °F 31.6 °F 39.2 °F 100% 29.85 in 10.0 mi West 12.7 mph 19.6 mph 0.01 in   Overcast
3:15 AM 39.2 °F 33.0 °F 39.2 °F 100% 29.85 in 5.0 mi West 9.2 mph 19.6 mph N/A Rain Light Rain
3:55 AM 39.2 °F 34.2 °F 39.2 °F 100% 29.85 in 2.0 mi West 6.9 mph - 0.01 in   Overcast
4:15 AM 39.2 °F 32.5 °F 39.2 °F 100% 29.85 in 4.0 mi West 10.4 mph - N/A Rain Light Rain
4:55 AM 39.2 °F 32.5 °F 39.2 °F 100% 29.86 in 8.0 mi West 10.4 mph - 0.01 in Rain Light Rain
5:15 AM 37.4 °F 30.8 °F 37.4 °F 100% 29.87 in 5.0 mi WSW 9.2 mph - N/A Rain Light Rain
5:35 AM 37.4 °F 31.4 °F 37.4 °F 100% 29.87 in 5.0 mi WSW 8.1 mph - 0.01 in Rain Light Rain
5:55 AM 37.4 °F 32.1 °F 37.4 °F 100% 29.87 in 7.0 mi West 6.9 mph - 0.01 in   Overcast
6:15 AM 37.4 °F 32.1 °F 37.4 °F 100% 29.87 in 8.0 mi West 6.9 mph - N/A   Overcast
6:55 AM 37.4 °F 30.8 °F 37.4 °F 100% 29.88 in 4.0 mi WNW 9.2 mph - 0.01 in Rain Light Rain
7:15 AM 35.6 °F 30.7 °F 35.6 °F 100% 29.89 in 5.0 mi West 5.8 mph - N/A   Overcast
7:35 AM 35.6 °F 28.6 °F 35.6 °F 100% 29.89 in 10.0 mi WSW 9.2 mph - N/A   Overcast
7:55 AM 35.6 °F 29.9 °F 35.6 °F 100% 29.89 in 10.0 mi WSW 6.9 mph - N/A   Overcast
8:15 AM 35.6 °F 28.0 °F 35.6 °F 100% 29.90 in 4.0 mi SW 10.4 mph - N/A   Overcast
8:35 AM 35.6 °F 28.6 °F 35.6 °F 100% 29.91 in 10.0 mi WSW 9.2 mph - N/A   Mostly Cloudy
8:55 AM 35.6 °F 28.6 °F 35.6 °F 100% 29.92 in 10.0 mi SW 9.2 mph - N/A   Overcast
9:15 AM 35.6 °F 27.5 °F 33.8 °F 93% 29.92 in 10.0 mi WSW 11.5 mph 17.3 mph N/A   Mostly Cloudy
9:35 AM 35.6 °F 28.6 °F 33.8 °F 93% 29.93 in 5.0 mi WSW 9.2 mph - N/A Rain Light Rain
9:55 AM 37.4 °F 29.8 °F 33.8 °F 87% 29.94 in 10.0 mi WSW 11.5 mph 17.3 mph N/A   Mostly Cloudy
10:15 AM 37.4 °F 30.3 °F 33.8 °F 87% 29.93 in 10.0 mi SW 10.4 mph - N/A   Mostly Cloudy
10:35 AM 37.4 °F 31.4 °F 32.0 °F 81% 29.92 in 10.0 mi WSW 8.1 mph - N/A   Mostly Cloudy
10:55 AM 37.4 °F 28.9 °F 32.0 °F 81% 29.93 in 10.0 mi WSW 13.8 mph - N/A   Overcast
11:15 AM 37.4 °F 30.3 °F 32.0 °F 81% 29.93 in 10.0 mi WSW 10.4 mph - N/A   Overcast
11:35 AM 37.4 °F 30.3 °F 32.0 °F 81% 29.94 in 10.0 mi WSW 10.4 mph 19.6 mph N/A   Overcast
11:55 AM 35.6 °F 26.2 °F 32.0 °F 87% 29.94 in 10.0 mi WSW 15.0 mph 18.4 mph N/A   Mostly Cloudy
12:15 PM 37.4 °F 31.4 °F 32.0 °F 81% 29.94 in 10.0 mi WSW 8.1 mph - N/A   Mostly Cloudy
12:35 PM 35.6 °F 28.0 °F 32.0 °F 87% 29.94 in 10.0 mi WSW 10.4 mph - N/A   Overcast
12:55 PM 35.6 °F 28.0 °F 32.0 °F 87% 29.94 in 10.0 mi West 10.4 mph 16.1 mph N/A   Overcast
1:15 PM 35.6 °F 28.6 °F 32.0 °F 87% 29.94 in 10.0 mi West 9.2 mph - N/A   Overcast
1:35 PM 35.6 °F 27.1 °F 32.0 °F 87% 29.94 in 10.0 mi West 12.7 mph - N/A   Overcast
1:55 PM 37.4 °F 30.8 °F 32.0 °F 81% 29.94 in 10.0 mi WSW 9.2 mph 17.3 mph N/A   Overcast
2:15 PM 37.4 °F 30.3 °F 32.0 °F 81% 29.95 in 10.0 mi WSW 10.4 mph 17.3 mph N/A   Overcast
2:35 PM 35.6 °F 27.1 °F 32.0 °F 87% 29.94 in 10.0 mi West 12.7 mph - N/A   Overcast
2:55 PM 35.6 °F 28.6 °F 32.0 °F 87% 29.94 in 10.0 mi West 9.2 mph 21.9 mph N/A   Overcast
3:15 PM 35.6 °F 28.6 °F 32.0 °F 87% 29.94 in 10.0 mi West 9.2 mph - N/A   Overcast
3:35 PM 35.6 °F 29.2 °F 32.0 °F 87% 29.93 in 10.0 mi WSW 8.1 mph - N/A   Overcast
3:55 PM 37.4 °F 32.1 °F 32.0 °F 81% 29.93 in 10.0 mi WSW 6.9 mph - N/A   Overcast
4:15 PM 37.4 °F 30.8 °F 32.0 °F 81% 29.94 in 10.0 mi SW 9.2 mph - N/A   Overcast
4:35 PM 37.4 °F 30.3 °F 32.0 °F 81% 29.95 in 10.0 mi WSW 10.4 mph - N/A   Overcast
5:15 PM 37.4 °F 29.8 °F 30.2 °F 75% 29.95 in 10.0 mi West 11.5 mph 17.3 mph N/A   Overcast
5:35 PM 35.6 °F 26.2 °F 30.2 °F 81% 29.96 in 10.0 mi West 15.0 mph 20.7 mph N/A   Overcast
5:55 PM 35.6 °F 27.5 °F 30.2 °F 81% 29.96 in 10.0 mi WSW 11.5 mph 19.6 mph N/A   Overcast
6:15 PM 35.6 °F 27.1 °F 30.2 °F 81% 29.97 in 10.0 mi WSW 12.7 mph - N/A   Overcast
6:35 PM 35.6 °F 29.2 °F 30.2 °F 81% 29.97 in 10.0 mi WSW 8.1 mph - N/A   Overcast
6:55 PM 35.6 °F 28.6 °F 30.2 °F 81% 29.97 in 10.0 mi WSW 9.2 mph - N/A   Overcast
7:15 PM 35.6 °F 29.2 °F 30.2 °F 81% 29.98 in 10.0 mi WSW 8.1 mph - N/A   Overcast
7:55 PM 35.6 °F 29.9 °F 30.2 °F 81% 29.99 in 10.0 mi SW 6.9 mph - N/A   Overcast
8:15 PM 35.6 °F 29.2 °F 30.2 °F 81% 30.00 in 10.0 mi SW 8.1 mph - N/A   Overcast
8:35 PM 35.6 °F 29.2 °F 30.2 °F 81% 30.00 in 10.0 mi SW 8.1 mph - N/A   Overcast
8:55 PM 35.6 °F 29.9 °F 30.2 °F 81% 30.00 in 10.0 mi WSW 6.9 mph - N/A   Overcast
9:15 PM 35.6 °F 30.7 °F 30.2 °F 81% 30.00 in 10.0 mi WSW 5.8 mph - N/A   Overcast
9:55 PM 35.6 °F 30.7 °F 30.2 °F 81% 30.02 in 10.0 mi WSW 5.8 mph - N/A   Overcast
10:15 PM 35.6 °F 29.9 °F 30.2 °F 81% 30.02 in 10.0 mi WSW 6.9 mph - N/A   Mostly Cloudy
10:35 PM 35.6 °F 29.9 °F 30.2 °F 81% 30.02 in 10.0 mi WSW 6.9 mph - N/A   Overcast
10:55 PM 35.6 °F 29.2 °F 28.4 °F 75% 30.02 in 10.0 mi West 8.1 mph - N/A   Overcast
11:15 PM 35.6 °F 31.7 °F 28.4 °F 75% 30.03 in 10.0 mi SW 4.6 mph - N/A   Overcast
11:35 PM 35.6 °F 31.7 °F 28.4 °F 75% 30.02 in 10.0 mi South 4.6 mph - N/A   Overcast